{"data":{"norad_id":63725,"intl_designator":"2025-088B","name":"KUIPER-00009","alt_names":[],"object_type":"PAYLOAD","status":"ACTIVE","operator":null,"country":"US","launch_date":"2025-04-28","launch_site_code":"AFETR","launch_vehicle":null,"mission":null,"orbit_class":"UNKNOWN","rcs_meters":null,"size_class":null,"mass_kg":null,"dimensions":null,"purposes":[],"wikipedia_slug":null,"has_3d_model":false,"image_url":null,"decayed_at":null,"tle_current":{"epoch":"2026-09-21T09:23:44.399904Z","epoch_age_seconds":127745,"freshness":"FRESH","line1":"1 63725U 25088B   26264.39148611  .00004477  00000+0  30513-3 0  9995","line2":"2 63725  51.9021 309.7701 0000312  60.9357 299.1648 15.08077948 76928","mean_motion":15.08077948,"eccentricity":3.12e-5,"inclination_deg":51.9021,"raan_deg":309.7701,"arg_perigee_deg":60.9357,"mean_anomaly_deg":299.1648,"bstar":0.00030513,"rev_number":7692,"period_min":95.485780553301,"perigee_km":541.85774728736,"apogee_km":542.28956843241,"semimajor_km":6920.2106578599,"source":"CELESTRAK","updated_at":"2026-09-22T09:00:29.315021Z"}}}